• In Czech Republic
  • List of Countries
  • For 7 days
  • Water Temperature
  • Satellite Maps
  • Weather Map
  • Weather Widgets
  • user-avatar
    Login

    Hourly Weather Kabul

    Today, 20 May, Sunday

    Time Temperature Precipitation Wind Pressure Humidity
    00:00 +12°C° 0.1 mm 3 mps 608 mmHg 43%
    01:00 +13°C° 0.1 mm 2 mps 608 mmHg 44%
    02:00 +12°C° 0.1 mm 2 mps 608 mmHg 45%
    03:00 +12°C° 0 mm 2 mps 608 mmHg 46%
    04:00 +10°C° 0 mm 2 mps 608 mmHg 48%
    05:00 +11°C° 0 mm 1 mps 608 mmHg 49%
    06:00 +12°C° 0 mm 1 mps 608 mmHg 47%
    07:00 +12°C° 0 mm 1 mps 608 mmHg 45%
    08:00 +13°C° 0 mm 2 mps 609 mmHg 44%
    09:00 +14°C° 0.1 mm 2 mps 609 mmHg 41%
    10:00 +15°C° 0.1 mm 2 mps 610 mmHg 39%
    11:00 +17°C° 0 mm 2 mps 610 mmHg 34%
    12:00 +17°C° 0.2 mm 2 mps 610 mmHg 32%
    13:00 +18°C° 0.2 mm 2 mps 610 mmHg 30%
    14:00 +19°C° 0.2 mm 2 mps 610 mmHg 28%
    15:00 +18°C° 0.2 mm 3 mps 610 mmHg 29%
    16:00 +18°C° 0.2 mm 3 mps 610 mmHg 30%
    17:00 +18°C° 0.2 mm 3 mps 610 mmHg 31%
    18:00 +17°C° 0.3 mm 3 mps 610 mmHg 33%
    19:00 +16°C° 0.3 mm 3 mps 610 mmHg 36%
    20:00 +14°C° 0.3 mm 3 mps 609 mmHg 38%
    21:00 +13°C° 0 mm 3 mps 609 mmHg 37%
    22:00 +13°C° 0 mm 3 mps 609 mmHg 37%
    23:00 +12°C° 0 mm 3 mps 609 mmHg 36%

    Tomorrow, 21 May, Monday

    Time Temperature Precipitation Wind Pressure Humidity
    00:00 +12°C° 0 mm 3 mps 609 mmHg 35%
    01:00 +11°C° 0 mm 3 mps 609 mmHg 35%
    02:00 +11°C° 0 mm 3 mps 609 mmHg 34%
    03:00 +10°C° 0 mm 2 mps 608 mmHg 35%
    04:00 +10°C° 0 mm 2 mps 608 mmHg 36%
    05:00 +10°C° 0 mm 2 mps 608 mmHg 37%
    06:00 +12°C° 0 mm 2 mps 609 mmHg 37%
    07:00 +13°C° 0 mm 2 mps 609 mmHg 37%
    08:00 +14°C° 0 mm 2 mps 610 mmHg 37%
    09:00 +15°C° 0 mm 2 mps 610 mmHg 35%
    10:00 +16°C° 0 mm 2 mps 610 mmHg 33%
    11:00 +17°C° 0 mm 2 mps 611 mmHg 31%
    12:00 +18°C° 0.2 mm 2 mps 611 mmHg 29%
    13:00 +19°C° 0.2 mm 2 mps 611 mmHg 27%
    14:00 +20°C° 0.2 mm 2 mps 611 mmHg 25%
    15:00 +20°C° 0.2 mm 3 mps 611 mmHg 25%
    16:00 +20°C° 0.2 mm 3 mps 611 mmHg 24%
    17:00 +20°C° 0.2 mm 3 mps 610 mmHg 24%
    18:00 +19°C° 0.1 mm 3 mps 610 mmHg 26%
    19:00 +18°C° 0.1 mm 3 mps 610 mmHg 28%
    20:00 +17°C° 0.1 mm 3 mps 610 mmHg 30%
    21:00 +16°C° 0.1 mm 3 mps 610 mmHg 30%
    22:00 +14°C° 0.1 mm 3 mps 610 mmHg 30%
    23:00 +14°C° 0.1 mm 2 mps 610 mmHg 30%

    Day after tomorrow, 22 May, Tuesday

    Time Temperature Precipitation Wind Pressure Humidity
    00:00 +14°C° 0.1 mm 2 mps 610 mmHg 30%
    01:00 +14°C° 0.1 mm 2 mps 609 mmHg 31%
    02:00 +13°C° 0.1 mm 2 mps 609 mmHg 31%
    03:00 +13°C° 0 mm 2 mps 609 mmHg 32%
    04:00 +12°C° 0 mm 2 mps 608 mmHg 32%
    05:00 +12°C° 0 mm 2 mps 608 mmHg 33%
    06:00 +13°C° 0 mm 2 mps 609 mmHg 30%
    07:00 +14°C° 0 mm 2 mps 610 mmHg 27%
    08:00 +16°C° 0 mm 1 mps 610 mmHg 24%
    09:00 +17°C° 0 mm 2 mps 611 mmHg 23%
    10:00 +18°C° 0 mm 2 mps 611 mmHg 22%
    11:00 +19°C° 0 mm 2 mps 611 mmHg 21%
    12:00 +20°C° 0 mm 2 mps 611 mmHg 20%
    13:00 +21°C° 0 mm 2 mps 611 mmHg 19%
    14:00 +23°C° 0 mm 2 mps 611 mmHg 18%
    15:00 +23°C° 0 mm 2 mps 611 mmHg 17%
    16:00 +22°C° 0 mm 3 mps 611 mmHg 17%
    17:00 +22°C° 0 mm 3 mps 611 mmHg 16%
    18:00 +21°C° 0 mm 3 mps 611 mmHg 18%
    19:00 +20°C° 0 mm 3 mps 610 mmHg 20%
    20:00 +19°C° 0 mm 3 mps 610 mmHg 22%
    21:00 +18°C° 0 mm 2 mps 610 mmHg 24%
    22:00 +17°C° 0 mm 2 mps 610 mmHg 26%
    23:00 +16°C° 0 mm 2 mps 610 mmHg 28%

    23 May, Wednesday

    Time Temperature Precipitation Wind Pressure Humidity
    00:00 +16°C° 0 mm 2 mps 610 mmHg 30%
    01:00 +15°C° 0 mm 2 mps 609 mmHg 33%
    02:00 +15°C° 0 mm 2 mps 609 mmHg 35%
    03:00 +14°C° 0 mm 2 mps 609 mmHg 37%
    04:00 +14°C° 0 mm 2 mps 609 mmHg 39%
    05:00 +13°C° 0 mm 2 mps 608 mmHg 41%
    06:00 +15°C° 0 mm 2 mps 609 mmHg 38%
    07:00 +16°C° 0 mm 2 mps 610 mmHg 35%
    08:00 +17°C° 0 mm 2 mps 611 mmHg 31%
    09:00 +19°C° 0 mm 2 mps 611 mmHg 28%
    10:00 +20°C° 0 mm 2 mps 611 mmHg 25%
    11:00 +21°C° 0 mm 2 mps 611 mmHg 22%
    12:00 +23°C° 0 mm 2 mps 611 mmHg 20%
    13:00 +24°C° 0 mm 2 mps 611 mmHg 19%
    14:00 +24°C° 0 mm 2 mps 611 mmHg 17%
    15:00 +24°C° 0 mm 2 mps 611 mmHg 17%
    16:00 +24°C° 0 mm 3 mps 610 mmHg 18%
    17:00 +24°C° 0 mm 3 mps 610 mmHg 18%
    18:00 +22°C° 0 mm 3 mps 610 mmHg 22%
    19:00 +21°C° 0 mm 3 mps 610 mmHg 25%
    20:00 +20°C° 0 mm 3 mps 610 mmHg 29%
    21:00 +19°C° 0 mm 3 mps 610 mmHg 32%
    22:00 +19°C° 0 mm 3 mps 610 mmHg 36%
    23:00 +18°C° 0 mm 3 mps 610 mmHg 39%

    24 May, Thursday

    Time Temperature Precipitation Wind Pressure Humidity
    00:00 +17°C° 0 mm 2 mps 610 mmHg 41%
    01:00 +17°C° 0 mm 2 mps 609 mmHg 43%
    02:00 +16°C° 0 mm 2 mps 609 mmHg 45%
    03:00 +16°C° 0 mm 2 mps 608 mmHg 46%
    04:00 +15°C° 0 mm 2 mps 608 mmHg 46%
    05:00 +15°C° 0 mm 2 mps 608 mmHg 47%
    06:00 +16°C° 0 mm 1 mps 608 mmHg 42%
    07:00 +18°C° 0 mm 1 mps 609 mmHg 37%
    08:00 +19°C° 0 mm 1 mps 610 mmHg 32%
    09:00 +21°C° 0 mm 1 mps 610 mmHg 29%
    10:00 +22°C° 0 mm 1 mps 610 mmHg 26%
    11:00 +23°C° 0 mm 1 mps 611 mmHg 23%
    12:00 +24°C° 0 mm 2 mps 611 mmHg 21%
    13:00 +25°C° 0 mm 2 mps 611 mmHg 19%
    14:00 +26°C° 0 mm 2 mps 611 mmHg 17%
    15:00 +26°C° 0 mm 2 mps 611 mmHg 17%
    16:00 +26°C° 0 mm 2 mps 610 mmHg 17%
    17:00 +26°C° 0 mm 3 mps 610 mmHg 17%
    18:00 +25°C° 0 mm 2 mps 610 mmHg 20%
    19:00 +24°C° 0 mm 2 mps 610 mmHg 22%
    20:00 +23°C° 0 mm 2 mps 610 mmHg 25%
    21:00 +21°C° 0 mm 2 mps 610 mmHg 27%
    22:00 +20°C° 0 mm 2 mps 610 mmHg 29%
    23:00 +20°C° 0 mm 1 mps 610 mmHg 31%

    25 May, Friday

    Time Temperature Precipitation Wind Pressure Humidity
    00:00 +20°C° 0 mm 1 mps 609 mmHg 33%
    01:00 +19°C° 0 mm 1 mps 609 mmHg 34%
    02:00 +18°C° 0 mm 1 mps 608 mmHg 35%
    03:00 +18°C° 0 mm 1 mps 608 mmHg 36%
    04:00 +16°C° 0 mm 1 mps 608 mmHg 36%
    05:00 +16°C° 0 mm 1 mps 608 mmHg 37%
    06:00 +18°C° 0 mm 1 mps 608 mmHg 33%
    07:00 +20°C° 0 mm 1 mps 609 mmHg 28%
    08:00 +21°C° 0 mm 1 mps 610 mmHg 24%
    09:00 +23°C° 0 mm 1 mps 610 mmHg 22%
    10:00 +24°C° 0 mm 1 mps 611 mmHg 20%
    11:00 +25°C° 0 mm 2 mps 611 mmHg 18%
    12:00 +26°C° 0 mm 2 mps 611 mmHg 18%
    13:00 +27°C° 0 mm 2 mps 611 mmHg 17%
    14:00 +28°C° 0 mm 3 mps 611 mmHg 16%
    15:00 +28°C° 0 mm 3 mps 611 mmHg 17%
    16:00 +27°C° 0 mm 3 mps 610 mmHg 18%
    17:00 +27°C° 0 mm 3 mps 610 mmHg 18%
    18:00 +26°C° 0 mm 3 mps 610 mmHg 22%
    19:00 +25°C° 0 mm 2 mps 610 mmHg 26%
    20:00 +24°C° 0 mm 2 mps 610 mmHg 30%
    21:00 +23°C° 0 mm 2 mps 610 mmHg 32%
    22:00 +21°C° 0 mm 2 mps 610 mmHg 34%
    23:00 +21°C° 0 mm 2 mps 610 mmHg 37%
    Show more